839  
ASUS44 KMAF 231410  
RWRMAF  
MIDLAND AREA WEATHER ROUNDUP  
NATIONAL WEATHER SERVICE MIDLAND TX  
900 AM CDT SAT SEP 23 2017  
   
..IN SOUTHWEST TEXAS AND SOUTHEAST NEW MEXICO
 
 
 
CITY SKY/WX TMP DP RH WIND PRES REMARKS
 
ALPINE MOSUNNY 70 61 73 S9G17 30.02R  
ANDREWS CLOUDY 73 64 75 S16G25 29.92S  
ARTESIA CLOUDY 70 70 100 S16G23 29.88S  
BIG SPRING CLOUDY 71 64 77 SE12G21 29.96R  
CARLSBAD CLOUDY 70 68 93 SE8 29.87R  
DRYDEN N/A 75 68 78 SE17G25 29.88R  
FORT STOCKTON NOT AVBL  
GUAD PASS CLOUDY 67 58 72 E12 29.99R  
HOBBS CLOUDY 70 64 83 S20G26 29.92S  
MARFA NOT AVBL  
MIDLAND AIRPK CLOUDY 74 65 73 SE15G22 29.93S  
MIDLAND INTL CLOUDY 75 65 70 SE18G25 29.92R  
ODESSA CLOUDY 74 66 76 S20G26 29.92R  
PECOS SUNNY 74 65 73 E20 29.84S  
PRESIDIO FAIR 78 63 58 NE12G23 29.86F  
SEMINOLE CLOUDY 72 63 74 S15G23 29.94R  
SNYDER MOSUNNY 71 66 83 SE14 29.95S  
WINK CLOUDY 74 66 76 SE21G31 29.86R  

   
..OTHER STATIONS IN TEXAS
 
 
 
CITY SKY/WX TMP DP RH WIND PRES REMARKS
 
ABILENE PTSUNNY 73 68 84 S17G23 29.96R  
AMARILLO NOT AVBL  
AUSTIN FOG 73 73 100 SE3 29.95R VSB 1/2  
BROWNSVILLE SUNNY 82 79 89 E6 29.87R  
CORPUS CHRISTI MOSUNNY 81 77 88 E6 29.88R  
DALLAS FTW SUNNY 79 71 76 S5 29.94R  
DEL RIO NOT AVBL  
EL PASO CLOUDY 72 60 66 SE10 29.86R  
HOUSTON INT MOSUNNY 78 75 90 NE5 29.93S  
LUBBOCK CLOUDY 70 64 81 S16 29.95R  
SAN ANGELO MOSUNNY 75 64 68 SE7 29.94R  
SAN ANTONIO PTSUNNY 75 72 90 SE8 29.95R  
WACO PTSUNNY 75 71 87 S9 29.96R  
WICHITA FALLS NOT AVBL  

   
..OTHER LOCATIONS IN NEW MEXICO
 
 
 
CITY SKY/WX TMP DP RH WIND PRES REMARKS
 
ALAMOGORDO LGT RAIN 72 54 53 CALM 29.89R  
ALBUQUERQUE CLOUDY 64 48 56 SE8 29.89S  
CANNON AFB CLOUDY 67 67 100 S14 29.96R  
CLOVIS CLOUDY 67 63 87 S14 29.96R  
HOLLOMAN AFB CLOUDY 73 53 48 S7 29.89R  
ROSWELL CLOUDY 70 66 87 S13 29.88F  
RUIDOSO PTSUNNY 57 54 88 N5 30.04F  
SANTA FE CLOUDY 60 50 69 S7 29.96R  
TRUTH OR CONSE PTSUNNY 71 45 39 S13 29.87S  
TUCUMCARI SUNNY 72 63 73 S17 29.88R  

 
 
 
CLICK HERE TO GO TO PREVIOUS BULLETINS.

The Nexlab TX Page
The Nexlab NM Page Main Text Page